Creston, IA

1:06 AM CDT on April 23, 2017 (GMT -0500)
Creston Municipal

Weather History for KCSQ - March, 2013

Change the Weather History Date:

Monday, March 11, 2013

  Actual Average Record
Temperature  
Mean Temperature 24 °F -  
Max Temperature 28 °F 49 °F 80 °F (1972)
Min Temperature 19 °F 28 °F 1 °F (1998)
Degree Days  
Heating Degree Days 42    
Moisture  
Dew Point 19 °F    
Average Humidity 78    
Maximum Humidity 86    
Minimum Humidity 69    
Precipitation  
Precipitation 0.00 in - - ()
Sea Level Pressure  
Sea Level Pressure 29.85 in    
Wind  
Wind Speed 16 mph (WNW)    
Max Wind Speed 22 mph    
Max Gust Speed 30 mph    
Visibility 8 miles    
Events Snow    
Averages and records for this station are not official NWS values.
T = Trace of Precipitation, MM = Missing Value Source: NWS Daily Summary

Daily Weather History Graph

Daily Weather History Graph

Search for Another Location

Airport or City:

Trip Planner

Search our weather history database for the weather conditions in past years. The results will help you decide how hot, cold, wet, or windy it might be!

Date:

Astronomy

Mar. 11, 2013 Rise Set
Actual Time 7:35 AM CDT 7:20 PM CDT
Civil Twilight 7:07 AM CDT 7:47 PM CDT
Nautical Twilight 6:36 AM CDT 8:19 PM CDT
Astronomical Twilight 6:03 AM CDT 8:51 PM CDT
Moon 7:09 AM CDT (3/11) 7:33 PM CDT (3/11)
Length of Visible Light 12h 39m
Length of Day
11h 44m
Waning Crescent, 0% of the Moon is Illuminated
Mar 11
Waning Crescent
Mar 11
New
Mar 19
First Quarter
Mar 27
Full
Apr 2
Last Quarter

Hourly Weather History & Observations

Time (CDT) Temp. Windchill Dew Point Humidity Pressure Visibility Wind Dir Wind Speed Gust Speed Precip Events Conditions
12:15 AM 26.6 °F 13.1 °F 21.2 °F 80% 29.80 in 10.0 mi NW 19.6 mph 25.3 mph N/A   Overcast
12:35 AM 26.6 °F 13.4 °F 21.2 °F 80% 29.81 in 7.0 mi NW 18.4 mph 26.5 mph N/A   Overcast
12:55 AM 26.6 °F 13.1 °F 21.2 °F 80% 29.80 in 5.0 mi NW 19.6 mph 26.5 mph N/A   Overcast
1:15 AM 26.6 °F 13.8 °F 21.2 °F 80% 29.79 in 5.0 mi NW 17.3 mph 29.9 mph N/A   Overcast
1:35 AM 26.6 °F 13.8 °F 21.2 °F 80% 29.79 in 7.0 mi NW 17.3 mph 24.2 mph N/A   Overcast
1:55 AM 26.6 °F 12.4 °F 21.2 °F 80% 29.79 in 7.0 mi NW 21.9 mph 28.8 mph N/A   Overcast
2:15 AM 26.6 °F 13.1 °F 21.2 °F 80% 29.79 in 7.0 mi NW 19.6 mph 27.6 mph N/A   Overcast
2:35 AM 26.6 °F 13.1 °F 21.2 °F 80% 29.79 in 10.0 mi NW 19.6 mph 26.5 mph N/A   Overcast
2:55 AM 26.6 °F 13.1 °F 21.2 °F 80% 29.79 in 7.0 mi NW 19.6 mph 26.5 mph N/A   Overcast
3:15 AM 24.8 °F 11.1 °F 21.2 °F 86% 29.79 in 2.5 mi NW 18.4 mph 26.5 mph N/A Snow Light Snow
3:35 AM 24.8 °F 10.7 °F 21.2 °F 86% 29.78 in 4.0 mi NW 19.6 mph - N/A   Overcast
3:55 AM 24.8 °F 10.7 °F 21.2 °F 86% 29.77 in 2.5 mi NW 19.6 mph 24.2 mph N/A Snow Light Snow
4:15 AM 24.8 °F 11.1 °F 21.2 °F 86% 29.76 in 2.5 mi NW 18.4 mph 24.2 mph N/A Snow Light Snow
4:35 AM 24.8 °F 11.5 °F 21.2 °F 86% 29.76 in 3.0 mi NW 17.3 mph 25.3 mph N/A Snow Light Snow
4:55 AM 24.8 °F 11.5 °F 21.2 °F 86% 29.76 in 4.0 mi NW 17.3 mph 23.0 mph N/A Snow Light Snow
5:15 AM 24.8 °F 11.5 °F 21.2 °F 86% 29.77 in 3.0 mi NW 17.3 mph - N/A Snow Light Snow
5:35 AM 24.8 °F 11.1 °F 21.2 °F 86% 29.77 in 3.0 mi NW 18.4 mph 23.0 mph N/A Snow Light Snow
5:55 AM 24.8 °F 11.9 °F 21.2 °F 86% 29.77 in 4.0 mi NW 16.1 mph - N/A Snow Light Snow
6:15 AM 24.8 °F 11.5 °F 19.4 °F 80% 29.78 in 3.0 mi NW 17.3 mph 21.9 mph N/A Snow Light Snow
6:35 AM 24.8 °F 11.9 °F 19.4 °F 80% 29.79 in 3.0 mi NW 16.1 mph 21.9 mph N/A Snow Light Snow
6:55 AM 24.8 °F 11.9 °F 19.4 °F 80% 29.79 in 2.5 mi NW 16.1 mph - N/A Snow Light Snow
7:15 AM 24.8 °F 12.9 °F 19.4 °F 80% 29.80 in 2.5 mi NW 13.8 mph 24.2 mph N/A Snow Light Snow
7:35 AM 24.8 °F 12.9 °F 19.4 °F 80% 29.81 in 2.5 mi NW 13.8 mph - N/A Snow Light Snow
7:55 AM 24.8 °F 11.9 °F 19.4 °F 80% 29.81 in 2.0 mi NW 16.1 mph - N/A Snow Light Snow
8:15 AM 24.8 °F 11.9 °F 19.4 °F 80% 29.82 in 5.0 mi NW 16.1 mph - N/A   Overcast
8:35 AM 24.8 °F 12.4 °F 19.4 °F 80% 29.82 in 7.0 mi NW 15.0 mph 20.7 mph N/A   Overcast
8:55 AM 24.8 °F 12.4 °F 19.4 °F 80% 29.83 in 10.0 mi NW 15.0 mph - N/A   Overcast
9:15 AM 24.8 °F 12.4 °F 19.4 °F 80% 29.83 in 10.0 mi NW 15.0 mph 19.6 mph N/A   Overcast
9:35 AM 24.8 °F 11.9 °F 19.4 °F 80% 29.83 in 10.0 mi NW 16.1 mph - N/A   Overcast
9:55 AM 24.8 °F 11.1 °F 19.4 °F 80% 29.83 in 10.0 mi NW 18.4 mph 21.9 mph N/A   Overcast
10:15 AM 24.8 °F 11.9 °F 19.4 °F 80% 29.83 in 10.0 mi NW 16.1 mph 21.9 mph N/A   Overcast
10:35 AM 24.8 °F 10.3 °F 19.4 °F 80% 29.83 in 10.0 mi WNW 20.7 mph 25.3 mph N/A   Overcast
10:55 AM 24.8 °F 10.7 °F 19.4 °F 80% 29.84 in 10.0 mi WNW 19.6 mph 25.3 mph N/A   Overcast
11:15 AM 24.8 °F 11.1 °F 19.4 °F 80% 29.84 in 10.0 mi WNW 18.4 mph - N/A   Overcast
11:35 AM 24.8 °F 11.5 °F 19.4 °F 80% 29.85 in 10.0 mi WNW 17.3 mph - N/A   Overcast
11:55 AM 24.8 °F 11.1 °F 19.4 °F 80% 29.84 in 10.0 mi WNW 18.4 mph 25.3 mph N/A   Overcast
12:15 PM 26.6 °F 14.3 °F 19.4 °F 74% 29.84 in 10.0 mi WNW 16.1 mph - N/A   Overcast
12:35 PM 26.6 °F 13.4 °F 19.4 °F 74% 29.84 in 10.0 mi WNW 18.4 mph 23.0 mph N/A   Overcast
12:55 PM 26.6 °F 14.7 °F 19.4 °F 74% 29.85 in 10.0 mi WNW 15.0 mph 20.7 mph N/A   Overcast
1:15 PM 26.6 °F 13.8 °F 19.4 °F 74% 29.86 in 10.0 mi WNW 17.3 mph 23.0 mph N/A   Overcast
1:35 PM 26.6 °F 13.8 °F 19.4 °F 74% 29.85 in 10.0 mi WNW 17.3 mph - N/A   Overcast
1:55 PM 26.6 °F 13.8 °F 19.4 °F 74% 29.85 in 10.0 mi West 17.3 mph - N/A   Overcast
2:15 PM 26.6 °F 13.4 °F 19.4 °F 74% 29.85 in 10.0 mi WNW 18.4 mph - N/A   Overcast
2:35 PM 26.6 °F 13.4 °F 19.4 °F 74% 29.85 in 10.0 mi West 18.4 mph - N/A   Overcast
2:55 PM 26.6 °F 15.2 °F 19.4 °F 74% 29.84 in 10.0 mi West 13.8 mph - N/A   Overcast
3:15 PM 26.6 °F 16.2 °F 19.4 °F 74% 29.84 in 10.0 mi WNW 11.5 mph - N/A   Overcast
3:35 PM 26.6 °F 14.7 °F 17.6 °F 69% 29.84 in 10.0 mi WNW 15.0 mph - N/A   Mostly Cloudy
3:55 PM 26.6 °F 15.7 °F 17.6 °F 69% 29.85 in 10.0 mi WNW 12.7 mph - N/A   Mostly Cloudy
4:15 PM 26.6 °F 15.2 °F 17.6 °F 69% 29.85 in 10.0 mi WNW 13.8 mph - N/A   Mostly Cloudy
4:35 PM 28.4 °F 15.8 °F 19.4 °F 69% 29.86 in 10.0 mi WNW 18.4 mph - N/A   Mostly Cloudy
4:55 PM 26.6 °F 13.8 °F 17.6 °F 69% 29.86 in 10.0 mi WNW 17.3 mph - N/A   Scattered Clouds
5:15 PM 26.6 °F 14.3 °F 17.6 °F 69% 29.86 in 10.0 mi WNW 16.1 mph - N/A   Scattered Clouds
5:35 PM 26.6 °F 14.3 °F 17.6 °F 69% 29.87 in 10.0 mi WNW 16.1 mph - N/A   Scattered Clouds
6:15 PM 26.6 °F 15.2 °F 17.6 °F 69% 29.88 in 10.0 mi WNW 13.8 mph - N/A   Clear
6:35 PM 24.8 °F 15.3 °F 17.6 °F 74% 29.88 in 10.0 mi WNW 9.2 mph - N/A   Clear
6:55 PM 24.8 °F 14.0 °F 17.6 °F 74% 29.90 in 10.0 mi West 11.5 mph - N/A   Clear
7:15 PM 24.8 °F 15.3 °F 17.6 °F 74% 29.90 in 10.0 mi West 9.2 mph - N/A   Mostly Cloudy
7:35 PM 26.6 °F 16.2 °F 19.4 °F 74% 29.91 in 10.0 mi WNW 11.5 mph - N/A   Overcast
7:55 PM 24.8 °F 14.6 °F 17.6 °F 74% 29.92 in 10.0 mi WNW 10.4 mph - N/A   Overcast
8:15 PM 26.6 °F 17.5 °F 19.4 °F 74% 29.92 in 10.0 mi West 9.2 mph - N/A   Overcast
8:35 PM 26.6 °F 18.2 °F 19.4 °F 74% 29.93 in 10.0 mi West 8.1 mph - N/A   Overcast
8:55 PM 26.6 °F - 19.4 °F 74% 29.92 in 10.0 mi Calm Calm - N/A   Overcast
9:15 PM 26.6 °F 19.1 °F 19.4 °F 74% 29.93 in 10.0 mi WNW 6.9 mph - N/A   Overcast
9:35 PM 24.8 °F - 17.6 °F 74% 29.93 in 10.0 mi Calm Calm - N/A   Scattered Clouds
9:55 PM 21.2 °F - 17.6 °F 86% 29.94 in 10.0 mi Calm Calm - N/A   Clear
10:15 PM 24.8 °F 15.3 °F 17.6 °F 74% 29.95 in 10.0 mi West 9.2 mph - N/A   Clear
10:35 PM 19.4 °F 14.3 °F 15.8 °F 86% 29.95 in 10.0 mi West 3.5 mph - N/A   Clear
10:55 PM 21.2 °F - 15.8 °F 80% 29.95 in 10.0 mi Calm Calm - N/A   Clear
11:15 PM 21.2 °F 12.6 °F 15.8 °F 80% 29.95 in 10.0 mi West 6.9 mph - N/A   Clear
11:35 PM 21.2 °F 12.6 °F 15.8 °F 80% 29.96 in 10.0 mi West 6.9 mph - N/A   Clear
11:55 PM 21.2 °F 10.9 °F 17.6 °F 86% 29.97 in 10.0 mi West 9.2 mph - N/A   Clear